Jianqiao current weather conditions

sailwx.info

Wind from 100 at 3 knots

Air temperature 4.0° C
Visibility: greater than 2.7 NM
Dewpoint -5.0° C
Present weather: Haze.

Last reported at 2014-Dec-23 00:30 UTC.
Time now 2014-Dec-23 01:37 UTC

Location: N 30°20' E 120°14'.
View on Google Maps.

See reports from other nearby stations

  
Tides and Currents Weather Stations Pressure Air Temp Water Temp Dewpoint Dewpoint Depression Visibility Wind Speed Wind Dir Waves Ship Positions
date/time (UTC)wind fromknots sea level pressurealtimeterstation pressurevisibilityair tempwater tempwave heightnotes
2014-Dec-23 00:30 100 3 2.7 4.0 Haze.
2014-Dec-23 00:00 2.7 2.0 Haze.
2014-Dec-22 23:30 2.7 2.0 Haze.
2014-Dec-22 23:00 100 3 2.4 1.0 Haze.
2014-Dec-22 22:30 2.7 1.0 Haze.
2014-Dec-22 22:00 070 1 3.2 1.0
2014-Dec-22 21:30 3.2 1.0
2014-Dec-22 21:00 2.2 2.0 Haze.
2014-Dec-22 20:30 2.7 3.0 Haze.
2014-Dec-22 20:00 070 3 2.7 2.0 Haze.
2014-Dec-22 19:30 2.7 3.0 Haze.
2014-Dec-22 19:00 2.7 3.0 Haze.
2014-Dec-22 18:30 110 1 3.2 4.0
2014-Dec-22 18:00 120 1 3.2 4.0
2014-Dec-22 17:30 090 3 3.2 4.0
2014-Dec-22 17:00 3.2 3.0
2014-Dec-22 16:30 080 3 3.2 3.0
2014-Dec-22 16:00 2.7 4.0 Haze.
2014-Dec-22 15:30 110 3 2.7 5.0 Haze.
2014-Dec-22 15:00 120 3 3.2 5.0
2014-Dec-22 14:30 110 3 3.2 5.0
2014-Dec-22 14:00 110 3 3.2 5.0
2014-Dec-22 13:30 120 3 3.8 5.0
2014-Dec-22 13:00 3.8 5.0
2014-Dec-22 12:30 130 3 3.8 5.0
2014-Dec-22 12:00 130 3 3.8 5.0
2014-Dec-22 11:30 140 3 3.8 6.0
2014-Dec-22 11:00 130 3 4.3 5.0
2014-Dec-22 10:30 120 3 6.0
2014-Dec-22 10:00 100 3 6.0
2014-Dec-22 09:30 110 3 7.0
2014-Dec-22 09:00 090 3 7.0
2014-Dec-22 08:30 100 1 8.0
2014-Dec-22 08:00 9.0
2014-Dec-22 07:30 9.0
2014-Dec-22 07:00 9.0
2014-Dec-22 06:30 9.0
2014-Dec-22 06:00 8.0
2014-Dec-22 05:30 9.0
2014-Dec-22 05:00 340 3 8.0
2014-Dec-22 04:30 8.0
2014-Dec-22 04:00 7.0
2014-Dec-22 03:30 260 3 7.0
2014-Dec-22 03:00 220 3 6.0
2014-Dec-22 02:30 250 3 4.3 6.0
2014-Dec-22 02:00 240 5 3.8 4.0
2014-Dec-22 01:30 230 3 3.8 3.0
2014-Dec-22 01:00 240 5 3.8 2.0
2014-Dec-22 00:30 250 3 3.8-0.0
2014-Dec-22 00:00 240 3 3.2-1.0
2014-Dec-21 23:30 240 3 3.8-2.0
2014-Dec-21 23:00 250 3 3.8-3.0
2014-Dec-21 22:30 250 1 -2.0
2014-Dec-21 22:00 240 1 -2.0
2014-Dec-21 21:30 220 1 -3.0
2014-Dec-21 21:00 220 1 -2.0
2014-Dec-21 20:30 240 3 -2.0
2014-Dec-21 20:00 240 3 -2.0
2014-Dec-21 19:30 260 1 -3.0
2014-Dec-21 19:00 270 1 -1.0
2014-Dec-21 18:30 -1.0
2014-Dec-21 18:00 -1.0
2014-Dec-21 17:30 180 1 -1.0
2014-Dec-21 17:00 180 1 -0.0
2014-Dec-21 16:30 -1.0
2014-Dec-21 16:00 320 1 -0.0
2014-Dec-21 15:30 2.0
2014-Dec-21 15:00 320 3 3.0
2014-Dec-21 14:30 320 7 4.0
2014-Dec-21 14:00 310 5 4.0
2014-Dec-21 13:30 310 7 4.0
2014-Dec-21 13:00 320 7 4.0
2014-Dec-21 12:30 330 9 4.0
2014-Dec-21 12:00 320 9 5.0
2014-Dec-21 11:30 330 9 5.0
2014-Dec-21 11:00 330 11 5.0
2014-Dec-21 10:30 320 5 5.0
2014-Dec-21 10:00 320 3 5.0
2014-Dec-21 09:30 320 3 5.0
2014-Dec-21 09:00 350 3 5.0
2014-Dec-21 08:30 350 3 6.0
2014-Dec-21 08:00 330 5 7.0
2014-Dec-21 07:30 330 7 7.0
2014-Dec-21 07:00 330 5 7.0
2014-Dec-21 06:30 330 9 6.0
2014-Dec-21 06:00 320 11 6.0
2014-Dec-21 05:30 310 11 6.0
2014-Dec-21 05:00 290 11 6.0
2014-Dec-21 04:30 330 11 6.0
2014-Dec-21 04:00 320 9 6.0
2014-Dec-21 03:30 320 9 6.0
2014-Dec-21 03:00 310 9 5.0
2014-Dec-21 02:30 300 7 5.4 5.0
2014-Dec-21 02:00 310 5 5.4 5.0
2014-Dec-21 01:30 320 5 5.4 4.0
2014-Dec-21 01:00 290 3 4.3 4.0